Location: Unspecified
(44.0704°N, 88.6889°W)
Time: 00:32:34
(UTC+02:00)

ISS - Pass Details

Date: 28 March 2019
Orbit: 408 x 410 km, 51.6° (Epoch: 23 April)

Event Time Altitude Azimuth Distance (km) Brightness Sun altitude
Rises 03:55:12 0° 296° (WNW) 2,337 1.3 -27.5°
Reaches altitude 10° 03:57:36 10° 312° (NW) 1,475 0.0 -27.9°
Enters shadow 03:58:51 17° 331° (NNW) 1,122 -0.9 -28.1°
